Location: Home
(42.5358°N, 72.7383°W)
Time: 01:47:50
(UTC-04:00)

SEEDS - Visible Passes

Search period start: 10 August 2022 00:00
Search period end: 20 August 2022 00:00
Orbit: 579 x 598 km, 97.6° (Epoch: 09 August)

Date Brightness Start Highest point End Pass type
(mag) Time Alt. Az. Time Alt. Az. Time Alt. Az.
10 Aug ? 04:36:08 10° NNE 04:40:05 39° E 04:44:01 10° SSE visible
11 Aug ? 04:43:42 10° NNE 04:47:46 48° E 04:51:50 10° S visible
12 Aug ? 04:51:18 10° NNE 04:55:27 59° E 04:59:36 10° S visible
13 Aug ? 04:58:55 10° NNE 05:03:08 73° ESE 05:07:19 10° S visible
14 Aug ? 05:06:34 10° NNE 05:10:47 89° ESE 05:14:59 10° SSW visible
15 Aug ? 05:14:13 10° N 05:18:25 75° WNW 05:22:37 10° SSW visible
16 Aug ? 03:48:40 10° ENE 03:50:10 12° E 03:51:39 10° ESE visible
16 Aug ? 05:21:54 10° N 05:26:04 61° WNW 05:30:11 10° SSW visible
17 Aug ? 03:55:36 10° ENE 03:57:54 14° E 04:00:10 10° SE visible
18 Aug ? 04:02:48 10° NE 04:05:36 17° E 04:08:24 10° SE visible
19 Aug ? 04:10:06 10° NE 04:13:18 21° E 04:16:29 10° SE visible
